Location: Gull Harbor
(47.1000°N, 122.9000°W)
Time: 00:30:00
(UTC-07:00)

OTV 5 (USA 277) - Visible Passes

Search period start: 23 September 2017 00:00
Search period end: 03 October 2017 00:00
Orbit: 404 x 417 km, 43.0° (Epoch: 07 September)

Date Brightness Start Highest point End Pass type
(mag) Time Alt. Az. Time Alt. Az. Time Alt. Az.
23 Sep ? 04:44:57 21° SE 04:44:57 21° SE 04:46:37 10° ESE visible
23 Sep ? 06:17:42 11° WSW 06:20:43 40° S 06:23:49 10° ESE visible
24 Sep ? 05:29:03 34° SSW 05:29:43 39° S 05:32:50 10° ESE visible
25 Sep ? 04:40:25 21° ESE 04:40:25 21° ESE 04:41:49 10° ESE visible
25 Sep ? 06:13:11 13° WSW 06:15:44 35° S 06:18:45 10° ESE visible
26 Sep ? 05:24:35 38° SSW 05:24:44 38° S 05:27:50 10° ESE visible
27 Sep ? 04:36:02 16° ESE 04:36:02 16° ESE 04:36:53 10° ESE visible
27 Sep ? 06:08:48 15° WSW 06:10:41 25° SSW 06:13:26 10° SE visible
28 Sep ? 05:20:19 28° S 05:20:19 28° S 05:22:40 10° SE visible
29 Sep ? 06:04:42 14° SW 06:05:32 15° SSW 06:07:30 10° S visible
30 Sep ? 05:16:25 13° SSE 05:16:25 13° SSE 05:17:07 10° SSE visible
